Time,TemperatureF,DewpointF,PressureIn,WindDirection,WindDirectionDegrees,WindSpeedMPH,WindSpeedGustMPH,Humidity,HourlyPrecipIn,Conditions,Clouds,dailyrainin,SoftwareType,DateUTC
2013-03-03 00:01:00,30.0,-99.9,-100.00,WSW,255,10.0,18.0,-999,-99.99,,,-99.99,,2013-03-03 07:01:00,
2013-03-03 00:11:00,30.0,-99.9,-100.00,WSW,245,11.0,17.0,-999,-99.99,,,-99.99,,2013-03-03 07:11:00,
2013-03-03 00:22:00,30.0,-99.9,-100.00,WSW,245,11.0,17.0,-999,-99.99,,,-99.99,,2013-03-03 07:22:00,
2013-03-03 00:32:00,30.0,-99.9,-100.00,WSW,245,11.0,17.0,-999,-99.99,,,-99.99,,2013-03-03 07:32:00,
2013-03-03 00:42:00,30.0,-99.9,-100.00,WSW,249,11.0,17.0,-999,-99.99,,,-99.99,,2013-03-03 07:42:00,
2013-03-03 00:52:00,30.0,-99.9,-100.00,WSW,249,11.0,17.0,-999,-99.99,,,-99.99,,2013-03-03 07:52:00,
2013-03-03 01:01:00,30.0,-99.9,-100.00,WSW,248,13.0,22.0,-999,-99.99,,,-99.99,,2013-03-03 08:01:00,
2013-03-03 01:11:00,29.0,-99.9,-100.00,WSW,246,15.0,24.0,-999,-99.99,,,-99.99,,2013-03-03 08:11:00,
2013-03-03 01:21:00,29.0,-99.9,-100.00,WSW,246,15.0,24.0,-999,-99.99,,,-99.99,,2013-03-03 08:21:00,
2013-03-03 01:32:00,29.0,-99.9,-100.00,WSW,246,15.0,24.0,-999,-99.99,,,-99.99,,2013-03-03 08:32:00,
2013-03-03 01:42:00,30.0,-99.9,-100.00,WSW,247,16.0,23.0,-999,-99.99,,,-99.99,,2013-03-03 08:42:00,
2013-03-03 01:54:00,30.0,-99.9,-100.00,WSW,250,14.0,21.0,-999,-99.99,,,-99.99,,2013-03-03 08:54:00,
2013-03-03 02:02:00,30.0,-99.9,-100.00,WSW,250,14.0,21.0,-999,-99.99,,,-99.99,,2013-03-03 09:02:00,
2013-03-03 02:12:00,30.0,-99.9,-100.00,WSW,245,17.0,26.0,-999,-99.99,,,-99.99,,2013-03-03 09:12:00,
2013-03-03 02:22:00,30.0,-99.9,-100.00,WSW,245,17.0,26.0,-999,-99.99,,,-99.99,,2013-03-03 09:22:00,
2013-03-03 02:32:00,30.0,-99.9,-100.00,WSW,245,17.0,26.0,-999,-99.99,,,-99.99,,2013-03-03 09:32:00,
2013-03-03 02:42:00,29.0,-99.9,-100.00,WSW,250,14.0,24.0,-999,-99.99,,,-99.99,,2013-03-03 09:42:00,
2013-03-03 02:52:00,29.0,-99.9,-100.00,WSW,250,14.0,24.0,-999,-99.99,,,-99.99,,2013-03-03 09:52:00,
2013-03-03 03:01:00,29.0,-99.9,-100.00,WSW,251,12.0,24.0,-999,-99.99,,,-99.99,,2013-03-03 10:01:00,
2013-03-03 03:12:00,29.0,-99.9,-100.00,WSW,241,18.0,29.0,-999,-99.99,,,-99.99,,2013-03-03 10:12:00,
2013-03-03 03:22:00,29.0,-99.9,-100.00,WSW,241,18.0,29.0,-999,-99.99,,,-99.99,,2013-03-03 10:22:00,
2013-03-03 03:32:00,29.0,-99.9,-100.00,WSW,241,18.0,29.0,-999,-99.99,,,-99.99,,2013-03-03 10:32:00,
2013-03-03 03:42:00,30.0,-99.9,-100.00,West,264,12.0,21.0,-999,-99.99,,,-99.99,,2013-03-03 10:42:00,
2013-03-03 03:52:00,29.0,-99.9,-100.00,WSW,255,9.0,15.0,-999,-99.99,,,-99.99,,2013-03-03 10:52:00,
2013-03-03 04:02:00,29.0,-99.9,-100.00,WSW,255,9.0,15.0,-999,-99.99,,,-99.99,,2013-03-03 11:02:00,
2013-03-03 04:11:00,30.0,-99.9,-100.00,SW,233,13.0,22.0,-999,-99.99,,,-99.99,,2013-03-03 11:11:00,
2013-03-03 04:22:00,30.0,-99.9,-100.00,SW,233,13.0,22.0,-999,-99.99,,,-99.99,,2013-03-03 11:22:00,
2013-03-03 04:32:00,30.0,-99.9,-100.00,SW,233,13.0,22.0,-999,-99.99,,,-99.99,,2013-03-03 11:32:00,
2013-03-03 04:42:00,29.0,-99.9,-100.00,WNW,294,6.0,14.0,-999,-99.99,,,-99.99,,2013-03-03 11:42:00,
2013-03-03 04:53:00,29.0,-99.9,-100.00,WNW,293,6.0,19.0,-999,-99.99,,,-99.99,,2013-03-03 11:53:00,
2013-03-03 05:02:00,29.0,-99.9,-100.00,WNW,293,6.0,19.0,-999,-99.99,,,-99.99,,2013-03-03 12:02:00,
2013-03-03 05:11:00,29.0,-99.9,-100.00,WNW,290,7.0,17.0,-999,-99.99,,,-99.99,,2013-03-03 12:11:00,
2013-03-03 05:22:00,29.0,-99.9,-100.00,WNW,290,7.0,17.0,-999,-99.99,,,-99.99,,2013-03-03 12:22:00,
2013-03-03 05:32:00,29.0,-99.9,-100.00,WNW,290,7.0,17.0,-999,-99.99,,,-99.99,,2013-03-03 12:32:00,
2013-03-03 05:43:00,27.0,-99.9,-100.00,West,266,8.0,16.0,-999,-99.99,,,-99.99,,2013-03-03 12:43:00,
2013-03-03 05:53:00,27.0,-99.9,-100.00,West,266,8.0,16.0,-999,-99.99,,,-99.99,,2013-03-03 12:53:00,
2013-03-03 06:02:00,27.0,-99.9,-100.00,West,272,5.0,14.0,-999,-99.99,,,-99.99,,2013-03-03 13:02:00,
2013-03-03 06:11:00,26.0,-99.9,-100.00,WNW,293,4.0,10.0,-999,-99.99,,,-99.99,,2013-03-03 13:11:00,
2013-03-03 06:22:00,26.0,-99.9,-100.00,WNW,293,4.0,10.0,-999,-99.99,,,-99.99,,2013-03-03 13:22:00,
2013-03-03 06:32:00,26.0,-99.9,-100.00,WNW,293,4.0,10.0,-999,-99.99,,,-99.99,,2013-03-03 13:32:00,
2013-03-03 06:42:00,26.0,-99.9,-100.00,SW,230,7.0,11.0,-999,-99.99,,,-99.99,,2013-03-03 13:42:00,
2013-03-03 06:52:00,26.0,-99.9,-100.00,SW,230,7.0,11.0,-999,-99.99,,,-99.99,,2013-03-03 13:52:00,
2013-03-03 07:02:00,26.0,-99.9,-100.00,SW,229,6.0,12.0,-999,-99.99,,,-99.99,,2013-03-03 14:02:00,
2013-03-03 07:11:00,26.0,-99.9,-100.00,SW,214,5.0,9.0,-999,-99.99,,,-99.99,,2013-03-03 14:11:00,
2013-03-03 07:22:00,26.0,-99.9,-100.00,SW,214,5.0,9.0,-999,-99.99,,,-99.99,,2013-03-03 14:22:00,
2013-03-03 07:32:00,26.0,-99.9,-100.00,SW,214,5.0,9.0,-999,-99.99,,,-99.99,,2013-03-03 14:32:00,
2013-03-03 07:42:00,25.0,-99.9,-100.00,WSW,238,5.0,8.0,-999,-99.99,,,-99.99,,2013-03-03 14:42:00,
2013-03-03 07:52:00,25.0,-99.9,-100.00,WSW,238,5.0,8.0,-999,-99.99,,,-99.99,,2013-03-03 14:52:00,
2013-03-03 08:02:00,25.0,-99.9,-100.00,West,279,4.0,9.0,-999,-99.99,,,-99.99,,2013-03-03 15:02:00,
2013-03-03 08:11:00,25.0,-99.9,-100.00,NW,305,3.0,6.0,-999,-99.99,,,-99.99,,2013-03-03 15:11:00,
2013-03-03 08:22:00,25.0,-99.9,-100.00,NW,305,3.0,6.0,-999,-99.99,,,-99.99,,2013-03-03 15:22:00,
2013-03-03 08:33:00,25.0,-99.9,-100.00,NW,305,3.0,6.0,-999,-99.99,,,-99.99,,2013-03-03 15:33:00,
2013-03-03 08:42:00,26.0,-99.9,-100.00,WNW,300,3.0,6.0,-999,-99.99,,,-99.99,,2013-03-03 15:42:00,
2013-03-03 08:52:00,26.0,-99.9,-100.00,WNW,300,3.0,6.0,-999,-99.99,,,-99.99,,2013-03-03 15:52:00,
2013-03-03 09:02:00,26.0,-99.9,-100.00,West,279,4.0,6.0,-999,-99.99,,,-99.99,,2013-03-03 16:02:00,
2013-03-03 09:12:00,26.0,-99.9,-100.00,WSW,258,6.0,10.0,-999,-99.99,,,-99.99,,2013-03-03 16:12:00,
2013-03-03 09:22:00,26.0,-99.9,-100.00,WSW,258,6.0,10.0,-999,-99.99,,,-99.99,,2013-03-03 16:22:00,
2013-03-03 09:32:00,26.0,-99.9,-100.00,WSW,258,6.0,10.0,-999,-99.99,,,-99.99,,2013-03-03 16:32:00,
2013-03-03 09:42:00,26.0,-99.9,-100.00,SW,233,7.0,11.0,-999,-99.99,,,-99.99,,2013-03-03 16:42:00,
2013-03-03 09:52:00,26.0,-99.9,-100.00,SW,233,7.0,11.0,-999,-99.99,,,-99.99,,2013-03-03 16:52:00,
2013-03-03 10:01:00,27.0,-99.9,-100.00,WSW,252,5.0,8.0,-999,-99.99,,,-99.99,,2013-03-03 17:01:00,
2013-03-03 10:12:00,27.0,-99.9,-100.00,WNW,294,5.0,11.0,-999,-99.99,,,-99.99,,2013-03-03 17:12:00,
2013-03-03 10:22:00,27.0,-99.9,-100.00,WNW,294,5.0,11.0,-999,-99.99,,,-99.99,,2013-03-03 17:22:00,
2013-03-03 10:32:00,27.0,-99.9,-100.00,WNW,294,5.0,11.0,-999,-99.99,,,-99.99,,2013-03-03 17:32:00,
2013-03-03 10:42:00,28.0,-99.9,-100.00,WNW,296,6.0,11.0,-999,-99.99,,,-99.99,,2013-03-03 17:42:00,
2013-03-03 10:52:00,28.0,-99.9,-100.00,WNW,296,6.0,11.0,-999,-99.99,,,-99.99,,2013-03-03 17:52:00,
2013-03-03 11:02:00,29.0,-99.9,-100.00,WNW,296,6.0,14.0,-999,-99.99,,,-99.99,,2013-03-03 18:02:00,
2013-03-03 11:11:00,29.0,-99.9,-100.00,WNW,292,7.0,17.0,-999,-99.99,,,-99.99,,2013-03-03 18:11:00,
2013-03-03 11:22:00,29.0,-99.9,-100.00,WNW,292,7.0,17.0,-999,-99.99,,,-99.99,,2013-03-03 18:22:00,
2013-03-03 11:32:00,29.0,-99.9,-100.00,WNW,292,7.0,17.0,-999,-99.99,,,-99.99,,2013-03-03 18:32:00,
2013-03-03 11:42:00,29.0,-99.9,-100.00,NW,306,7.0,17.0,-999,-99.99,,,-99.99,,2013-03-03 18:42:00,
2013-03-03 11:53:00,29.0,-99.9,-100.00,NW,306,7.0,17.0,-999,-99.99,,,-99.99,,2013-03-03 18:53:00,
2013-03-03 12:02:00,28.0,-99.9,-100.00,WNW,302,7.0,15.0,-999,-99.99,,,-99.99,,2013-03-03 19:02:00,
2013-03-03 12:11:00,29.0,-99.9,-100.00,NW,314,6.0,12.0,-999,-99.99,,,-99.99,,2013-03-03 19:11:00,
2013-03-03 12:22:00,29.0,-99.9,-100.00,NW,314,6.0,12.0,-999,-99.99,,,-99.99,,2013-03-03 19:22:00,
2013-03-03 12:32:00,29.0,-99.9,-100.00,NW,314,6.0,12.0,-999,-99.99,,,-99.99,,2013-03-03 19:32:00,
2013-03-03 12:42:00,29.0,-99.9,-100.00,WNW,294,6.0,12.0,-999,-99.99,,,-99.99,,2013-03-03 19:42:00,
2013-03-03 12:52:00,29.0,-99.9,-100.00,WNW,294,6.0,12.0,-999,-99.99,,,-99.99,,2013-03-03 19:52:00,
2013-03-03 13:02:00,28.0,-99.9,-100.00,WNW,301,8.0,14.0,-999,-99.99,,,-99.99,,2013-03-03 20:02:00,
2013-03-03 13:12:00,27.0,-99.9,-100.00,WNW,299,9.0,17.0,-999,-99.99,,,-99.99,,2013-03-03 20:12:00,
2013-03-03 13:22:00,27.0,-99.9,-100.00,WNW,299,9.0,17.0,-999,-99.99,,,-99.99,,2013-03-03 20:22:00,
2013-03-03 13:32:00,27.0,-99.9,-100.00,WNW,299,9.0,17.0,-999,-99.99,,,-99.99,,2013-03-03 20:32:00,
2013-03-03 13:43:00,27.0,-99.9,-100.00,WNW,297,11.0,20.0,-999,-99.99,,,-99.99,,2013-03-03 20:43:00,
2013-03-03 13:53:00,27.0,-99.9,-100.00,WNW,297,11.0,20.0,-999,-99.99,,,-99.99,,2013-03-03 20:53:00,
2013-03-03 14:02:00,27.0,-99.9,-100.00,WNW,294,10.0,18.0,-999,-99.99,,,-99.99,,2013-03-03 21:02:00,
2013-03-03 14:12:00,26.0,-99.9,-100.00,WNW,295,10.0,20.0,-999,-99.99,,,-99.99,,2013-03-03 21:12:00,
2013-03-03 14:22:00,26.0,-99.9,-100.00,WNW,295,10.0,20.0,-999,-99.99,,,-99.99,,2013-03-03 21:22:00,
2013-03-03 14:32:00,26.0,-99.9,-100.00,WNW,295,10.0,20.0,-999,-99.99,,,-99.99,,2013-03-03 21:32:00,
2013-03-03 14:42:00,26.0,-99.9,-100.00,WNW,287,11.0,23.0,-999,-99.99,,,-99.99,,2013-03-03 21:42:00,
2013-03-03 14:52:00,26.0,-99.9,-100.00,WNW,288,11.0,22.0,-999,-99.99,,,-99.99,,2013-03-03 21:52:00,
2013-03-03 15:02:00,26.0,-99.9,-100.00,WNW,288,11.0,22.0,-999,-99.99,,,-99.99,,2013-03-03 22:02:00,
2013-03-03 15:11:00,27.0,-99.9,-100.00,WNW,288,9.0,18.0,-999,-99.99,,,-99.99,,2013-03-03 22:11:00,
2013-03-03 15:22:00,27.0,-99.9,-100.00,WNW,288,9.0,18.0,-999,-99.99,,,-99.99,,2013-03-03 22:22:00,
2013-03-03 15:32:00,27.0,-99.9,-100.00,WNW,288,9.0,18.0,-999,-99.99,,,-99.99,,2013-03-03 22:32:00,
2013-03-03 15:42:00,26.0,-99.9,-100.00,WNW,287,9.0,20.0,-999,-99.99,,,-99.99,,2013-03-03 22:42:00,
2013-03-03 15:53:00,26.0,-99.9,-100.00,WNW,287,9.0,20.0,-999,-99.99,,,-99.99,,2013-03-03 22:53:00,
2013-03-03 16:02:00,26.0,-99.9,-100.00,WNW,292,8.0,18.0,-999,-99.99,,,-99.99,,2013-03-03 23:02:00,
2013-03-03 16:12:00,26.0,-99.9,-100.00,WNW,286,8.0,17.0,-999,-99.99,,,-99.99,,2013-03-03 23:12:00,
2013-03-03 16:22:00,26.0,-99.9,-100.00,WNW,286,8.0,17.0,-999,-99.99,,,-99.99,,2013-03-03 23:22:00,
2013-03-03 16:32:00,26.0,-99.9,-100.00,WNW,286,8.0,17.0,-999,-99.99,,,-99.99,,2013-03-03 23:32:00,
2013-03-03 16:42:00,26.0,-99.9,-100.00,WNW,285,6.0,12.0,-999,-99.99,,,-99.99,,2013-03-03 23:42:00,
2013-03-03 16:52:00,26.0,-99.9,-100.00,WNW,285,6.0,12.0,-999,-99.99,,,-99.99,,2013-03-03 23:52:00,
2013-03-03 17:02:00,26.0,-99.9,-100.00,WNW,292,7.0,18.0,-999,-99.99,,,-99.99,,2013-03-04 00:02:00,
2013-03-03 17:11:00,25.0,-99.9,-100.00,WNW,301,10.0,21.0,-999,-99.99,,,-99.99,,2013-03-04 00:11:00,
2013-03-03 17:22:00,25.0,-99.9,-100.00,WNW,301,10.0,21.0,-999,-99.99,,,-99.99,,2013-03-04 00:22:00,
2013-03-03 17:32:00,25.0,-99.9,-100.00,WNW,301,10.0,21.0,-999,-99.99,,,-99.99,,2013-03-04 00:32:00,
2013-03-03 17:42:00,25.0,-99.9,-100.00,WNW,285,9.0,17.0,-999,-99.99,,,-99.99,,2013-03-04 00:42:00,
2013-03-03 17:52:00,25.0,-99.9,-100.00,WNW,285,9.0,17.0,-999,-99.99,,,-99.99,,2013-03-04 00:52:00,
2013-03-03 18:02:00,24.0,-99.9,-100.00,WNW,292,9.0,16.0,-999,-99.99,,,-99.99,,2013-03-04 01:02:00,
2013-03-03 18:12:00,24.0,-99.9,-100.00,WNW,291,9.0,18.0,-999,-99.99,,,-99.99,,2013-03-04 01:12:00,
2013-03-03 18:22:00,24.0,-99.9,-100.00,WNW,291,9.0,18.0,-999,-99.99,,,-99.99,,2013-03-04 01:22:00,
2013-03-03 18:32:00,24.0,-99.9,-100.00,WNW,291,9.0,18.0,-999,-99.99,,,-99.99,,2013-03-04 01:32:00,
2013-03-03 18:42:00,24.0,-99.9,-100.00,WNW,294,6.0,12.0,-999,-99.99,,,-99.99,,2013-03-04 01:42:00,
2013-03-03 18:52:00,24.0,-99.9,-100.00,NW,309,7.0,12.0,-999,-99.99,,,-99.99,,2013-03-04 01:52:00,
2013-03-03 19:02:00,24.0,-99.9,-100.00,NW,309,7.0,12.0,-999,-99.99,,,-99.99,,2013-03-04 02:02:00,
2013-03-03 19:11:00,24.0,-99.9,-100.00,NW,306,6.0,10.0,-999,-99.99,,,-99.99,,2013-03-04 02:11:00,
2013-03-03 19:22:00,24.0,-99.9,-100.00,NW,306,6.0,10.0,-999,-99.99,,,-99.99,,2013-03-04 02:22:00,
2013-03-03 19:32:00,24.0,-99.9,-100.00,NW,306,6.0,10.0,-999,-99.99,,,-99.99,,2013-03-04 02:32:00,
2013-03-03 19:42:00,24.0,-99.9,-100.00,WNW,288,6.0,11.0,-999,-99.99,,,-99.99,,2013-03-04 02:42:00,
2013-03-03 19:53:00,24.0,-99.9,-100.00,WNW,283,10.0,17.0,-999,-99.99,,,-99.99,,2013-03-04 02:53:00,
2013-03-03 20:02:00,24.0,-99.9,-100.00,WNW,283,10.0,17.0,-999,-99.99,,,-99.99,,2013-03-04 03:02:00,
2013-03-03 20:12:00,24.0,-99.9,-100.00,WNW,292,8.0,14.0,-999,-99.99,,,-99.99,,2013-03-04 03:12:00,
2013-03-03 20:22:00,24.0,-99.9,-100.00,WNW,292,8.0,14.0,-999,-99.99,,,-99.99,,2013-03-04 03:22:00,
2013-03-03 20:32:00,24.0,-99.9,-100.00,WNW,292,8.0,14.0,-999,-99.99,,,-99.99,,2013-03-04 03:32:00,
2013-03-03 20:42:00,24.0,-99.9,-100.00,WNW,291,12.0,21.0,-999,-99.99,,,-99.99,,2013-03-04 03:42:00,
2013-03-03 20:53:00,23.0,-99.9,-100.00,WNW,294,11.0,20.0,-999,-99.99,,,-99.99,,2013-03-04 03:53:00,
2013-03-03 21:02:00,23.0,-99.9,-100.00,WNW,294,11.0,20.0,-999,-99.99,,,-99.99,,2013-03-04 04:02:00,
2013-03-03 21:11:00,23.0,-99.9,-100.00,WNW,294,8.0,16.0,-999,-99.99,,,-99.99,,2013-03-04 04:11:00,
2013-03-03 21:22:00,23.0,-99.9,-100.00,WNW,294,8.0,16.0,-999,-99.99,,,-99.99,,2013-03-04 04:22:00,
2013-03-03 21:32:00,23.0,-99.9,-100.00,WNW,294,8.0,16.0,-999,-99.99,,,-99.99,,2013-03-04 04:32:00,
2013-03-03 21:42:00,23.0,-99.9,-100.00,WNW,292,12.0,21.0,-999,-99.99,,,-99.99,,2013-03-04 04:42:00,
2013-03-03 21:52:00,23.0,-99.9,-100.00,WNW,292,12.0,21.0,-999,-99.99,,,-99.99,,2013-03-04 04:52:00,
2013-03-03 22:01:00,23.0,-99.9,-100.00,WNW,287,11.0,21.0,-999,-99.99,,,-99.99,,2013-03-04 05:01:00,
2013-03-03 22:11:00,23.0,-99.9,-100.00,WNW,290,11.0,19.0,-999,-99.99,,,-99.99,,2013-03-04 05:11:00,
2013-03-03 22:22:00,23.0,-99.9,-100.00,WNW,290,11.0,19.0,-999,-99.99,,,-99.99,,2013-03-04 05:22:00,
2013-03-03 22:32:00,23.0,-99.9,-100.00,WNW,290,11.0,19.0,-999,-99.99,,,-99.99,,2013-03-04 05:32:00,
2013-03-03 22:43:00,23.0,-99.9,-100.00,WNW,294,9.0,16.0,-999,-99.99,,,-99.99,,2013-03-04 05:43:00,
2013-03-03 22:52:00,23.0,-99.9,-100.00,WNW,294,9.0,16.0,-999,-99.99,,,-99.99,,2013-03-04 05:52:00,
2013-03-03 23:02:00,22.0,-99.9,-100.00,WNW,290,9.0,19.0,-999,-99.99,,,-99.99,,2013-03-04 06:02:00,
2013-03-03 23:11:00,22.0,-99.9,-100.00,WNW,294,8.0,17.0,-999,-99.99,,,-99.99,,2013-03-04 06:11:00,
2013-03-03 23:22:00,22.0,-99.9,-100.00,WNW,294,8.0,17.0,-999,-99.99,,,-99.99,,2013-03-04 06:22:00,
2013-03-03 23:32:00,22.0,-99.9,-100.00,WNW,294,8.0,17.0,-999,-99.99,,,-99.99,,2013-03-04 06:32:00,
2013-03-03 23:42:00,22.0,-99.9,-100.00,WNW,297,10.0,20.0,-999,-99.99,,,-99.99,,2013-03-04 06:42:00,
2013-03-03 23:52:00,22.0,-99.9,-100.00,WNW,297,10.0,20.0,-999,-99.99,,,-99.99,,2013-03-04 06:52:00,